Wetbulb
34.11 28.35 25.37 27.72 29.96 30.92 29.58 27.39 26.29 30.28 34.41 31.79 31.50 32.35 34.75 37.46 37.80 37.48 38.26 38.86 39.40 41.58 46.13 49.26 57.52 59.96 59.78 59.41 59.25 59.65 59.14 59.71 59.59 57.65 55.69 55.36 56.05 51.92 50.44 52.66 54.89 54.29 52.84 51.23
29.15 25.44 31.75 34.31 33.83 32.25 30.54 27.71 26.87 30.98 34.20 33.27 31.83 30.82 34.30 36.03 36.45 37.28 37.87 38.77 39.25 40.50 42.62 46.80 49.68 58.68 59.21 58.22 59.34 59.17 59.80 58.99 59.45 58.54 58.00 56.09 51.97 46.19 45.77 45.49 45.79 47.61 47.69 47.62
26.48 29.48 34.28 33.56 31.32 29.80 29.58 28.18 27.79 28.17 32.57 33.45 29.95 26.63 28.65 34.15 34.61 35.61 37.14 38.77 39.75 39.95 40.77 44.14 49.47 56.23 59.18 57.73 58.76 58.77 59.96 59.18 59.27 58.82 54.35 50.28 47.45 45.43 43.72 43.07 42.85 43.25 44.25 44.27
28.45 33.62 32.31 31.05 29.73 31.03 27.27 32.65 31.88 30.45 28.63 20.67 30.47 19.70 27.70 31.13 31.87 33.55 35.71 35.97 36.60 37.74 40.38 43.79 47.31 55.17 57.86 58.44 59.21 59.42 59.74 59.84 59.27 57.24 54.40 52.83 53.16 49.20 44.24 42.92 40.84 40.02 41.33 40.87
26.73 29.67 29.20 28.05 30.15 33.31 28.54 33.93 31.54 30.67 27.37 25.54 25.86 23.40 25.48 30.05 29.66 33.54 36.93 38.66 39.57 41.15 42.71 42.21 43.30 49.50 58.38 58.70 58.24 59.02 59.23 59.49 59.58 56.48 54.50 54.40 54.79 48.77 42.89 39.96 38.14 37.90 38.46 39.26
29.19 33.59 31.90 31.81 33.91 32.11 33.69 30.80 29.59 27.59 27.44 19.50 23.32 21.67 23.41 25.99 31.11 34.95 37.40 37.88 38.88 39.65 40.72 41.98 44.18 46.38 56.16 58.63 58.13 58.91 58.56 58.67 58.99 56.33 54.51 55.24 50.37 44.10 40.59 38.10 37.01 36.80 36.95 37.43
25.34 26.96 31.03 32.90 27.40 31.03 29.92 24.34 9.44 8.99 8.67 10.47 25.18 22.88 25.73 32.01 35.74 36.73 36.65 37.37 37.91 38.55 39.07 39.73 40.78 42.22 45.64 55.78 56.83 57.89 58.31 57.99 58.21 55.36 54.10 55.06 47.32 45.80 42.08 39.16 36.81 35.72 35.56 35.74
16.70 12.26 27.19 31.50 27.83 25.81 26.52 24.44 20.48 13.81 9.45 16.71 27.48 19.72 26.21 36.45 37.56 38.65 39.04 38.14 37.94 37.41 38.17 38.66 39.36 40.71 43.17 45.18 55.50 56.59 57.23 57.68 56.26 54.25 53.93 51.02 47.50 45.73 42.86 40.25 37.71 36.33 35.53 35.39
17.58 18.70 29.02 29.62 31.29 29.78 21.89 20.77 31.26 24.78 20.22 19.57 21.42 26.87 32.77 36.59 35.43 35.59 37.17 36.39 35.53 36.58 37.07 37.66 38.38 38.86 41.18 42.48 44.75 55.48 56.27 57.16 55.32 53.82 53.17 48.21 46.51 43.63 40.68 37.96 37.00 35.82 35.37 35.29
24.45 17.83 25.32 28.78 30.98 32.52 29.95 34.10 22.28 20.94 15.88 13.65 19.05 20.43 23.11 29.21 30.58 32.91 33.91 33.34 34.54 36.23 36.35 36.62 37.40 38.82 40.75 42.11 44.17 51.77 56.10 56.54 53.76 53.28 49.24 46.97 43.38 40.82 38.70 37.15 35.28 34.84 34.77 34.33
26.64 22.95 21.57 25.92 24.36 23.17 20.99 20.65 26.72 26.71 24.45 19.35 16.50 20.66 32.16 29.88 31.66 31.18 32.71 33.13 34.37 35.15 35.40 35.84 36.41 38.84 40.29 41.86 43.29 48.35 56.09 54.54 51.02 47.80 45.64 42.02 39.36 38.17 37.02 35.40 34.42 33.79 33.66 33.47
27.98 23.58 17.69 20.29 27.85 29.10 28.80 27.69 26.84 19.94 19.40 22.53 22.41 20.48 35.05 33.32 32.96 33.27 32.27 33.06 33.80 34.31 34.95 35.35 37.07 39.33 42.48 46.07 49.13 51.05 48.97 47.33 44.66 42.33 39.55 37.53 36.57 35.49 33.66 32.33 32.53 33.56 32.17 32.20
25.12 14.12 11.56 13.59 21.84 28.34 25.46 27.23 28.15 27.61 25.40 20.91 19.17 20.22 34.96 33.89 32.64 32.89 31.75 31.93 31.98 33.53 33.97 35.78 37.87 38.36 39.00 40.69 42.17 42.83 41.86 40.15 38.82 37.51 35.59 34.10 33.17 32.55 32.16 32.20 32.60 32.70 32.16 31.48
31.20 22.71 13.98 9.71 18.20 22.31 20.71 23.73 25.72 25.90 21.20 22.90 23.04 24.80 28.98 30.46 30.92 31.32 31.82 31.12 32.26 32.78 33.53 35.57 34.93 34.41 35.50 35.72 36.20 36.43 35.95 36.81 35.16 34.46 33.49 32.50 32.35 32.24 31.89 31.86 31.97 31.20 30.72 29.61
26.90 14.98 14.42 19.36 22.12 22.09 21.78 22.39 24.59 24.89 27.85 22.67 25.68 26.00 28.99 30.91 30.57 31.18 30.21 30.49 30.42 30.94 32.35 33.23 32.71 32.51 32.55 32.16 32.46 32.79 32.73 33.09 33.35 32.78 32.52 31.82 31.91 31.83 31.60 30.94 29.87 29.30 28.77 28.21
25.95 10.88 21.31 17.56 22.37 23.17 21.97 24.68 26.72 29.05 29.08 28.51 28.41 27.34 32.99 32.78 32.10 30.08 28.75 28.51 27.90 29.21 30.66 31.89 32.00 32.15 31.90 32.08 31.86 32.07 31.80 31.74 32.56 31.75 31.01 31.35 31.07 30.21 29.29 28.68 27.91 27.16 26.72 26.32
21.11 19.57 14.23 7.51 19.84 20.75 16.25 25.45 26.68 28.87 30.77 29.87 25.21 29.28 31.92 29.20 29.39 29.10 28.19 28.14 26.99 27.35 29.40 30.12 30.95 31.39 31.77 31.65 32.05 31.60 31.95 32.59 31.72 30.83 30.26 29.55 29.15 28.01 27.44 27.00 26.23 25.60 25.23 25.61
16.03 21.85 20.58 9.81 11.48 7.12 24.57 29.87 29.55 29.08 30.53 32.12 29.31 29.56 30.26 29.49 31.31 31.11 30.44 28.85 27.85 27.87 28.41 29.94 30.79 31.08 31.52 31.86 31.77 31.67 31.42 30.66 29.68 28.74 28.33 28.48 27.57 26.25 26.48 25.99 25.68 25.97 25.86 25.08
26.24 23.88 14.89 6.90 4.62 16.33 24.68 26.77 26.44 27.10 28.46 29.92 27.51 29.09 29.27 30.66 32.83 30.83 30.73 30.81 28.90 28.82 29.66 30.26 31.11 31.37 31.50 31.24 31.55 31.04 30.20 29.54 28.41 27.28 26.94 26.94 26.53 25.76 25.58 25.25 25.32 25.44 25.06 24.55
26.71 26.16 17.28 -0.71 7.14 3.04 22.53 27.70 30.35 31.75 24.09 28.78 28.70 27.85 27.69 30.20 24.78 26.06 29.77 30.54 29.64 29.63 29.44 29.53 29.96 29.53 29.65 30.29 30.67 29.02 28.04 27.60 26.43 26.68 26.58 26.48 26.42 25.62 24.59 24.22 23.71 23.92 24.24 23.46
9.65 18.68 15.58 8.00 7.48 12.30 24.61 28.31 31.20 21.97 26.06 28.07 28.63 28.05 28.11 27.84 29.88 30.63 30.28 29.47 29.99 29.50 29.60 29.57 28.80 27.43 28.02 29.39 29.00 26.77 26.25 24.52 25.66 25.88 25.29 24.79 24.67 23.95 23.70 23.02 22.97 22.84 22.40 22.15
12.23 11.80 6.54 13.39 6.68 8.60 27.61 27.13 23.71 29.05 28.27 27.03 26.74 28.12 27.83 30.24 31.59 30.49 29.18 28.47 28.75 28.12 28.30 28.39 26.96 26.30 27.25 28.08 26.74 24.57 23.09 24.03 23.98 23.69 23.17 22.82 23.05 23.58 23.18 22.42 22.28 22.05 21.21 19.82
11.80 19.01 16.33 17.66 18.28 26.76 29.11 29.17 29.52 27.70 26.78 26.64 26.22 28.57 28.39 30.66 30.11 28.92 28.19 28.13 28.19 28.22 27.94 27.97 26.72 25.13 25.20 25.58 25.19 22.49 22.67 23.18 22.69 22.47 22.12 22.29 22.90 23.39 23.20 22.07 21.08 20.18 19.98 18.46
19.30 21.72 21.45 22.48 23.24 25.01 27.21 28.64 27.23 27.61 27.19 27.22 27.99 27.67 28.36 30.03 29.72 28.45 28.25 27.75 27.57 27.71 27.35 27.29 25.90 23.86 22.99 24.07 24.45 23.93 23.77 24.04 23.38 21.75 21.26 21.47 21.16 20.96 21.13 21.66 21.12 19.85 18.80 17.70
18.83 20.41 15.18 17.91 23.37 24.85 27.20 26.45 27.55 27.05 26.47 26.84 27.17 27.41 26.80 29.68 28.46 28.09 27.10 26.65 26.52 26.28 26.29 26.28 24.90 23.54 23.17 23.81 23.63 24.39 24.58 24.21 22.15 21.84 21.02 20.48 20.00 19.29 19.16 19.41 18.53 18.23 17.80 18.63
19.25 18.97 19.41 17.90 23.37 23.28 26.01 25.32 26.19 25.91 25.00 24.90 24.94 25.65 26.08 27.52 27.54 26.87 25.56 25.85 25.88 25.26 25.34 24.31 23.93 23.53 23.57 23.85 22.66 22.48 23.41 22.42 21.07 19.82 19.45 18.83 18.10 18.60 20.40 20.87 20.99 26.15 25.17 24.77
MSLP
1020.42 1020.81 1020.93 1020.83 1020.73 1020.62 1020.35 1019.92 1019.15 1017.85 1016.61 1015.88 1014.86 1012.66 1012.10 1011.31 1010.52 1009.79 1009.12 1008.61 1007.82 1007.58 1006.94 1006.60 1006.58 1006.54 1006.66 1006.51 1007.31 1008.00 1008.65 1009.26 1010.16 1011.02 1011.84 1012.67 1013.30 1014.05 1014.53 1014.79 1015.00 1015.31 1015.95 1016.26
1021.56 1021.25 1020.76 1020.58 1020.47 1020.38 1020.00 1019.76 1018.76 1017.53 1016.63 1016.13 1014.47 1012.77 1011.65 1010.54 1009.65 1009.22 1008.70 1008.20 1007.81 1007.26 1006.80 1006.29 1006.11 1005.97 1006.16 1006.25 1006.20 1006.96 1007.71 1008.45 1009.22 1010.05 1010.95 1011.91 1013.18 1014.36 1014.76 1015.24 1015.58 1015.72 1016.05 1016.38
1022.55 1021.32 1020.81 1020.55 1020.31 1020.15 1019.52 1019.47 1018.82 1017.97 1016.75 1015.82 1014.73 1012.69 1011.77 1009.66 1009.33 1008.75 1008.31 1007.66 1007.26 1006.92 1006.55 1006.04 1005.74 1005.27 1005.39 1005.60 1005.81 1006.18 1006.76 1007.48 1008.22 1009.33 1010.95 1012.32 1013.33 1014.62 1015.38 1015.81 1016.22 1016.54 1016.48 1016.79
1022.38 1021.21 1021.05 1020.59 1020.40 1020.13 1019.67 1018.95 1018.52 1017.84 1017.61 1016.89 1015.90 1014.40 1011.68 1010.12 1009.62 1009.27 1008.87 1008.37 1007.70 1006.97 1006.29 1005.81 1005.58 1005.11 1004.92 1005.00 1005.37 1005.21 1005.78 1006.72 1007.61 1008.57 1009.86 1011.00 1012.33 1013.77 1014.84 1015.71 1016.50 1017.08 1017.23 1017.45
1022.60 1021.69 1021.17 1020.72 1020.29 1020.11 1019.55 1018.77 1018.40 1017.94 1017.64 1017.54 1015.71 1015.81 1011.52 1010.90 1010.07 1009.80 1009.43 1009.04 1008.51 1008.03 1007.41 1006.76 1006.17 1004.74 1004.17 1004.24 1004.80 1005.34 1005.45 1005.93 1006.82 1008.07 1008.96 1010.24 1011.55 1013.11 1014.50 1015.97 1016.71 1017.96 1017.89 1018.23
1023.15 1021.92 1021.37 1020.55 1020.06 1019.61 1019.35 1019.10 1018.08 1017.83 1017.91 1017.73 1015.97 1015.66 1011.82 1011.09 1010.63 1010.09 1009.61 1009.29 1008.96 1008.26 1007.75 1007.22 1006.34 1005.22 1003.94 1003.61 1004.12 1004.90 1005.40 1005.73 1006.36 1007.59 1008.59 1009.38 1010.92 1012.94 1014.61 1016.07 1016.98 1018.26 1018.66 1019.13
1024.09 1022.33 1021.25 1020.75 1020.29 1019.61 1019.92 1020.06 1019.64 1019.40 1018.70 1017.54 1015.68 1014.98 1011.75 1010.85 1010.45 1010.40 1010.02 1009.37 1008.94 1008.72 1008.06 1007.66 1007.17 1006.18 1005.11 1004.19 1003.85 1004.17 1004.86 1005.06 1006.03 1007.07 1008.13 1008.95 1010.43 1011.71 1013.34 1014.94 1016.49 1017.92 1018.72 1019.72
1026.25 1023.53 1021.92 1021.38 1021.44 1020.96 1020.62 1020.92 1021.12 1020.29 1019.16 1016.96 1015.20 1013.84 1011.18 1010.62 1010.48 1010.48 1010.30 1009.95 1009.22 1008.25 1008.23 1007.86 1007.62 1006.84 1005.68 1004.91 1004.34 1003.87 1004.12 1004.92 1005.56 1006.72 1007.81 1009.06 1010.30 1011.58 1013.12 1014.43 1015.93 1017.40 1018.41 1019.81
1027.01 1024.75 1022.46 1021.96 1021.38 1021.33 1020.72 1020.86 1020.47 1019.76 1018.61 1017.63 1014.84 1012.75 1010.90 1010.45 1010.18 1009.84 1009.45 1009.40 1009.07 1008.60 1008.09 1007.80 1007.37 1006.97 1006.08 1005.22 1004.82 1004.13 1004.34 1004.59 1005.34 1006.10 1007.57 1009.00 1010.32 1011.49 1013.08 1014.68 1015.97 1017.40 1018.72 1019.81
1027.45 1026.14 1023.35 1022.05 1021.36 1020.85 1020.67 1020.63 1020.58 1020.26 1019.33 1017.36 1014.71 1013.26 1011.57 1011.16 1011.06 1010.93 1010.52 1010.13 1009.39 1008.81 1008.25 1007.56 1007.14 1006.49 1005.85 1005.26 1004.71 1004.22 1003.93 1004.40 1005.38 1006.32 1007.48 1008.85 1010.35 1011.80 1013.15 1014.64 1015.94 1017.46 1018.83 1020.02
1027.60 1027.53 1024.34 1023.08 1021.97 1021.56 1021.33 1020.94 1021.12 1020.91 1019.76 1017.86 1015.61 1012.94 1011.70 1011.63 1011.18 1010.89 1010.77 1010.34 1009.51 1008.73 1008.15 1007.65 1006.85 1006.18 1005.40 1004.52 1004.07 1003.78 1003.38 1004.26 1005.63 1006.97 1008.34 1009.69 1011.19 1012.45 1013.71 1014.97 1016.60 1017.86 1019.20 1020.56
1027.76 1027.73 1026.47 1023.85 1021.96 1021.59 1021.38 1021.18 1021.57 1020.97 1019.65 1018.47 1016.82 1013.05 1011.60 1011.51 1011.56 1011.56 1011.12 1010.48 1009.89 1008.93 1008.05 1007.40 1006.69 1005.86 1004.94 1003.53 1002.91 1002.99 1003.46 1004.66 1006.25 1007.67 1009.05 1010.66 1012.05 1013.49 1014.37 1015.54 1016.78 1018.65 1019.88 1021.18
1027.76 1028.15 1027.49 1024.61 1022.84 1021.93 1021.83 1021.42 1021.58 1021.10 1020.02 1018.12 1016.79 1013.62 1011.98 1011.82 1011.69 1011.65 1011.31 1010.56 1009.80 1008.91 1007.93 1007.26 1006.57 1005.98 1005.12 1004.20 1003.61 1003.83 1004.74 1005.80 1007.40 1008.79 1010.04 1011.67 1013.27 1014.41 1015.73 1016.22 1017.54 1019.10 1020.54 1022.16
1027.76 1028.34 1028.45 1027.12 1024.93 1023.94 1022.95 1021.60 1020.98 1020.75 1019.53 1017.89 1016.53 1014.57 1012.60 1012.15 1011.98 1011.33 1011.19 1010.90 1009.91 1009.09 1008.24 1007.54 1007.13 1006.74 1006.22 1005.75 1005.50 1005.71 1006.32 1007.01 1008.52 1009.85 1011.37 1012.59 1014.27 1015.51 1016.38 1017.94 1018.62 1019.48 1021.25 1023.23
1028.29 1028.56 1028.08 1026.88 1025.33 1024.38 1023.16 1022.10 1020.88 1020.12 1018.94 1018.13 1016.37 1015.18 1014.28 1013.61 1013.13 1012.59 1012.36 1011.35 1010.42 1009.57 1008.78 1008.19 1007.85 1007.50 1007.30 1007.26 1007.08 1007.58 1007.94 1008.58 1009.58 1010.76 1012.61 1013.76 1015.08 1016.17 1017.18 1019.13 1020.37 1021.19 1022.27 1023.80
1028.81 1028.86 1028.30 1026.39 1024.55 1023.69 1022.54 1021.26 1020.35 1019.51 1018.65 1017.68 1016.65 1015.57 1015.00 1013.98 1013.68 1013.31 1012.74 1012.01 1011.29 1010.47 1009.67 1009.14 1008.76 1008.48 1008.38 1008.57 1008.64 1009.13 1009.49 1010.00 1010.61 1012.34 1013.36 1014.68 1016.30 1017.28 1018.45 1020.05 1021.70 1021.98 1023.45 1024.40
1029.28 1029.30 1029.24 1027.55 1025.13 1023.43 1022.05 1020.36 1019.77 1019.26 1018.48 1017.97 1017.27 1016.46 1015.46 1014.25 1013.90 1013.98 1013.40 1012.98 1012.39 1011.59 1010.86 1010.33 1010.09 1009.91 1009.70 1009.83 1010.11 1009.85 1011.02 1011.30 1012.32 1013.65 1014.75 1016.38 1017.65 1018.54 1019.75 1021.12 1021.93 1023.13 1024.40 1025.07
1029.49 1029.72 1029.86 1028.70 1026.47 1023.99 1021.03 1019.78 1019.24 1019.08 1018.35 1018.26 1017.89 1016.87 1016.49 1015.39 1014.71 1014.82 1014.45 1013.96 1013.39 1012.88 1012.28 1011.89 1011.65 1011.45 1011.35 1011.25 1011.53 1011.95 1012.36 1012.67 1013.58 1015.20 1016.33 1017.88 1018.88 1019.88 1021.13 1022.22 1022.90 1024.31 1025.04 1026.07
1029.65 1029.96 1030.38 1030.15 1028.62 1024.68 1020.94 1019.55 1019.30 1019.20 1018.65 1018.68 1018.14 1017.13 1016.81 1015.68 1014.85 1015.11 1015.25 1014.99 1014.62 1014.27 1013.87 1013.52 1013.31 1013.20 1012.69 1012.86 1013.11 1013.25 1014.11 1014.41 1015.61 1017.05 1018.20 1019.50 1020.43 1020.96 1022.13 1022.96 1023.71 1024.69 1025.76 1026.71
1029.92 1030.10 1030.74 1030.61 1029.35 1025.53 1021.14 1019.63 1019.01 1019.09 1019.15 1018.83 1018.61 1018.05 1017.39 1016.48 1015.81 1016.68 1016.47 1015.94 1015.71 1015.47 1015.24 1014.96 1014.85 1014.81 1014.99 1015.10 1014.94 1015.19 1015.99 1016.83 1018.01 1019.04 1020.08 1020.70 1021.20 1021.95 1023.25 1023.72 1024.48 1025.32 1026.12 1027.08
1030.25 1030.01 1030.16 1030.25 1028.97 1024.62 1020.73 1019.63 1019.09 1019.47 1020.04 1019.12 1019.31 1019.08 1018.43 1018.07 1018.29 1018.18 1017.78 1017.31 1016.97 1016.72 1016.60 1016.51 1016.37 1016.53 1016.98 1016.82 1016.72 1017.49 1018.32 1019.20 1020.17 1020.94 1021.77 1022.09 1022.63 1022.94 1023.75 1024.46 1025.17 1026.23 1027.42 1028.36
1029.26 1029.36 1029.20 1029.15 1027.66 1023.73 1020.20 1019.53 1019.63 1019.74 1019.70 1019.85 1019.96 1019.75 1019.43 1018.91 1018.61 1018.66 1018.59 1018.43 1018.29 1018.29 1018.24 1018.17 1018.19 1018.65 1018.84 1018.83 1018.84 1019.84 1020.60 1021.50 1021.92 1022.38 1022.65 1023.10 1023.77 1024.49 1024.74 1025.67 1026.75 1027.60 1028.28 1028.61
1027.89 1026.40 1026.05 1025.76 1023.15 1020.72 1019.90 1019.76 1019.42 1019.68 1020.23 1020.24 1020.52 1020.42 1020.14 1019.62 1019.35 1019.46 1019.55 1019.40 1019.35 1019.46 1019.55 1019.67 1019.74 1019.94 1020.24 1020.55 1020.89 1021.41 1022.35 1022.50 1022.67 1023.20 1023.90 1024.39 1025.06 1025.56 1026.08 1026.68 1027.41 1028.00 1028.40 1029.05
1026.01 1025.04 1024.89 1023.93 1020.66 1020.03 1019.64 1019.59 1019.57 1019.77 1020.36 1020.53 1020.93 1020.95 1020.81 1020.58 1020.30 1020.20 1020.18 1020.35 1020.47 1020.61 1020.68 1020.82 1021.00 1021.34 1021.77 1022.04 1022.19 1022.51 1023.00 1023.43 1023.78 1024.28 1024.93 1025.60 1026.17 1026.84 1026.96 1027.35 1027.64 1028.01 1028.61 1029.05
1025.13 1024.61 1023.81 1022.55 1020.61 1019.84 1019.38 1019.53 1019.57 1020.03 1020.58 1021.03 1021.10 1021.39 1021.42 1021.16 1021.18 1021.07 1021.12 1021.11 1021.25 1021.43 1021.66 1021.85 1022.20 1022.62 1022.91 1023.11 1023.38 1023.67 1023.99 1024.24 1024.82 1025.46 1026.05 1026.63 1026.91 1027.31 1027.86 1028.18 1028.15 1028.30 1029.07 1029.36
1023.39 1022.18 1022.25 1020.89 1019.59 1019.63 1019.54 1019.80 1020.12 1020.44 1020.96 1021.35 1021.85 1021.85 1021.91 1021.88 1021.91 1021.86 1022.02 1022.13 1022.07 1022.25 1022.51 1022.72 1023.03 1023.27 1023.67 1023.85 1024.21 1024.49 1024.61 1024.82 1025.39 1026.18 1026.87 1027.51 1027.78 1028.21 1028.40 1028.50 1028.81 1029.18 1029.40 1029.46
Wind_Speed
5 5 2 6 3 5 6 6 10 14 15 10 13 26 21 17 18 21 18 17 15 11 9 8 9 15 16 18 18 19 18 18 14 10 10 6 8 3 3 4 6 7 7 7
7 2 3 6 4 6 8 9 10 10 7 12 16 23 24 23 21 19 19 17 15 14 10 11 9 12 14 17 21 21 20 18 16 12 10 5 5 3 4 3 5 5 7 6
3 7 8 4 7 7 7 6 6 13 15 11 10 11 8 13 7 7 9 13 13 15 15 12 9 10 14 18 19 20 22 19 17 16 9 6 7 5 3 3 4 4 7 7
5 5 6 8 8 3 6 5 12 17 11 7 7 9 14 9 10 6 9 10 12 10 11 10 9 7 11 15 15 21 22 20 17 18 14 19 13 9 3 3 5 5 7 9
7 6 10 10 3 4 11 11 15 16 15 7 3 4 12 4 5 8 8 12 12 12 10 10 12 14 13 14 15 15 19 20 18 18 17 15 13 7 8 7 10 7 8 9
8 5 3 5 3 5 8 10 15 2 1 3 5 5 11 3 3 5 9 9 10 13 13 13 13 13 11 13 14 14 17 18 18 18 18 20 16 14 11 9 8 6 6 7
9 7 5 3 7 6 11 5 6 8 4 7 2 3 13 1 2 5 10 15 14 9 12 12 12 14 12 8 15 16 17 19 17 18 17 17 17 18 18 16 11 11 8 7
5 13 5 4 2 5 6 2 3 6 4 12 8 8 6 4 1 6 9 12 14 16 12 12 9 11 12 9 8 17 19 18 16 18 17 13 16 11 10 11 12 9 10 9
5 8 6 12 4 4 6 2 7 6 3 5 3 7 3 5 14 24 24 22 21 18 17 17 13 9 12 12 9 12 16 18 18 18 15 15 14 16 14 16 14 11 13 11
3 11 5 7 5 1 4 2 5 3 6 7 5 5 6 11 18 20 23 23 22 20 18 18 14 12 9 12 10 13 18 18 17 16 15 13 15 15 17 16 16 17 15 16
3 4 9 6 1 4 6 4 2 4 5 5 8 5 3 9 21 21 23 23 24 24 21 19 17 14 14 15 13 13 17 14 15 14 13 15 14 16 16 16 16 16 17 16
2 4 7 9 14 9 5 1 2 3 5 6 6 9 5 20 18 18 23 23 21 22 18 17 15 15 14 9 12 10 14 15 14 14 16 16 16 15 18 18 19 18 17 15
2 4 7 12 7 3 3 7 5 8 7 7 4 9 19 22 22 21 20 23 20 17 16 12 9 7 6 6 9 12 14 16 16 16 18 18 16 17 16 20 19 18 18 14
0 3 8 7 11 8 11 17 19 8 4 5 8 20 25 26 27 26 20 18 17 14 13 9 5 5 7 8 11 13 15 16 18 18 18 19 18 17 18 15 18 18 17 14
1 5 3 13 21 17 19 19 20 15 12 4 15 20 22 23 22 14 17 17 15 13 10 7 5 5 8 10 13 13 16 18 19 22 19 20 19 21 19 18 17 16 16 13
1 5 4 9 4 6 11 15 12 10 7 11 13 18 19 23 18 14 17 16 15 12 10 8 7 8 10 11 14 13 16 18 20 19 24 19 19 19 19 18 16 17 13 12
2 2 5 9 9 13 4 4 5 6 7 9 10 18 17 25 21 16 17 15 13 13 11 11 10 9 10 11 11 17 16 20 21 21 21 19 18 19 17 17 16 14 12 11
2 3 2 7 9 4 5 3 3 5 12 6 13 17 16 19 18 11 16 14 13 13 13 12 10 11 12 13 15 16 17 19 21 20 20 18 18 18 15 15 15 13 11 10
7 1 3 3 2 10 6 2 3 1 4 7 13 16 16 20 11 6 18 14 13 13 11 13 13 13 14 14 15 18 18 20 20 19 18 16 15 16 15 15 14 11 11 10
4 4 2 4 1 5 5 1 4 4 4 10 10 14 17 16 11 8 16 14 13 13 12 12 14 15 14 13 16 18 17 18 17 15 15 13 13 14 14 14 13 10 11 11
2 3 6 3 5 11 11 6 3 4 5 8 7 9 12 8 4 8 9 11 11 12 14 13 15 15 13 13 16 17 16 16 14 13 11 12 12 14 12 12 11 11 11 10
8 7 5 3 3 10 2 3 3 3 4 4 4 6 9 10 9 7 8 9 10 11 12 12 13 13 12 13 15 15 15 10 11 12 13 12 10 9 10 12 10 10 9 10
4 8 6 11 9 6 2 3 3 2 3 4 4 5 7 8 8 8 8 8 9 10 10 9 10 12 12 11 11 14 9 10 12 13 12 12 11 10 9 9 9 8 8 7
6 6 5 0 6 8 5 4 3 4 3 1 2 4 4 3 5 6 7 7 8 8 9 8 10 11 11 10 11 11 9 9 11 13 11 9 10 8 7 6 5 7 6 6
6 7 6 7 11 11 13 7 5 3 3 3 2 2 4 4 5 6 7 7 7 7 8 8 9 9 9 8 9 8 8 10 11 10 9 8 7 8 7 6 5 5 3 5
8 9 9 9 7 3 1 4 4 4 1 4 2 3 5 6 5 6 6 5 5 6 6 8 8 8 7 8 7 6 6 8 10 10 7 5 6 5 6 7 8 14 14 16
Wind_Direction
335 47 338 303 292 247 260 272 281 284 280 293 286 287 291 288 274 274 266 273 273 258 270 269 241 225 208 192 192 182 179 182 174 175 167 165 165 125 83 95 131 138 149 135
9 316 219 301 311 302 289 292 288 287 283 298 293 284 282 274 270 264 268 267 266 271 260 261 260 219 204 199 188 186 184 177 179 176 177 154 135 80 103 93 79 95 112 114
200 260 323 328 317 320 299 257 279 285 311 284 299 298 331 292 257 266 264 264 261 249 253 252 241 227 200 200 195 188 184 178 176 169 126 101 91 89 90 82 78 53 93 94
272 289 324 313 301 269 291 273 291 297 318 306 74 294 282 289 312 351 332 331 312 278 262 247 227 233 202 201 205 194 185 178 177 156 155 163 171 163 138 109 98 78 78 88
264 294 326 322 288 306 262 284 285 285 284 296 15 244 272 303 312 347 347 345 338 347 356 333 300 240 213 189 197 205 191 185 174 166 165 168 172 142 124 116 105 100 82 83
262 287 238 236 295 267 292 317 306 355 213 260 253 149 279 290 308 327 327 334 338 333 333 331 325 310 230 196 187 191 191 187 172 167 171 174 150 144 133 130 118 110 91 86
325 297 294 13 332 324 18 4 332 349 3 224 265 290 246 43 359 322 321 332 333 330 327 326 326 330 335 240 193 180 187 187 174 165 174 173 157 156 154 150 142 137 121 106
346 334 11 23 263 283 313 123 276 293 287 290 273 232 270 111 332 303 320 320 321 333 329 315 313 312 309 323 252 190 182 185 165 166 174 154 155 152 148 146 139 130 122 117
331 271 304 305 277 112 289 342 274 266 241 266 266 294 268 5 355 349 339 339 328 322 321 314 312 296 293 297 297 208 191 185 171 170 157 154 150 143 141 132 125 120 116 114
273 294 266 289 320 118 201 320 333 3 299 293 277 276 258 4 346 333 329 324 318 314 314 311 308 296 281 278 271 263 190 186 170 165 153 149 140 134 133 130 128 122 117 111
3 201 291 351 307 312 338 333 11 272 239 291 321 263 162 344 339 330 327 322 319 315 311 307 302 295 290 275 259 253 192 165 144 141 135 130 127 127 123 120 117 116 113 109
238 282 281 272 287 279 223 85 295 247 314 266 255 272 175 342 330 327 322 317 317 312 307 304 296 299 285 270 231 169 136 132 127 124 119 115 116 118 117 117 116 116 108 108
267 309 311 336 355 26 337 304 268 291 264 240 282 282 324 319 324 325 323 326 321 312 309 305 309 324 354 37 77 103 113 110 110 112 111 109 110 114 113 112 112 117 108 110
122 238 198 218 255 303 296 297 304 297 261 301 271 301 317 324 328 329 333 331 324 323 319 318 349 18 37 57 81 95 98 103 105 104 107 108 107 106 108 99 106 102 104 106
66 263 221 255 262 275 271 279 292 297 294 277 295 299 315 320 325 325 330 332 336 337 345 358 14 60 66 77 82 89 95 100 107 107 102 108 109 107 101 102 101 97 103 111
350 274 302 292 286 246 268 285 273 302 290 270 286 304 331 320 328 345 344 347 347 349 1 14 30 60 77 85 93 89 96 98 102 100 104 103 103 102 105 105 107 107 113 114
267 298 350 271 323 312 348 241 276 301 270 296 326 318 323 327 336 356 349 357 359 1 14 26 31 57 77 84 96 98 105 106 101 103 101 101 105 102 102 111 112 110 112 116
222 306 293 277 339 11 242 258 266 257 287 343 320 319 330 321 325 5 1 3 8 16 24 33 41 60 69 84 87 102 95 95 98 97 97 101 104 105 113 105 106 112 106 105
219 237 287 301 232 290 308 50 328 5 294 345 318 327 338 328 315 16 359 10 23 23 37 50 51 56 68 76 86 88 92 92 91 93 96 103 113 116 114 114 109 106 113 112
200 214 143 5 16 240 242 6 307 148 279 356 347 335 336 336 13 356 349 3 30 34 36 49 59 55 55 66 81 79 81 85 88 95 103 109 107 106 109 115 113 111 101 100
212 200 219 249 273 283 257 278 156 36 309 336 341 333 332 351 359 332 351 20 28 35 41 46 56 52 45 59 75 73 76 76 84 94 99 93 97 104 104 102 97 100 106 112
174 155 202 145 224 278 207 5 61 262 312 308 331 326 330 333 356 11 14 31 42 47 45 44 60 55 45 56 75 79 79 84 92 95 91 88 85 94 94 95 99 105 113 105
253 195 182 188 217 240 258 220 226 210 250 322 321 323 333 342 2 18 27 33 46 54 59 55 66 65 54 61 75 89 89 93 91 87 86 82 81 79 90 110 112 109 105 114
244 177 226 329 253 244 211 201 205 219 159 315 281 325 344 2 360 29 42 52 56 51 60 64 68 63 66 63 73 79 85 96 99 97 89 87 96 99 85 88 103 114 122 112
208 141 186 267 279 279 266 222 205 211 153 107 322 56 22 12 44 57 49 44 53 59 63 75 84 79 77 78 78 85 99 106 99 98 100 100 89 90 92 80 87 83 54 130
189 188 183 219 231 192 275 155 161 190 64 17 28 46 45 38 59 63 55 46 66 73 79 85 86 88 86 88 82 71 75 101 110 104 99 98 103 93 98 103 101 100 105 106